Wetbulb
58.63 58.31 58.09 57.79 57.74 57.37 57.24 57.39 57.37 57.32 57.34 57.38 57.43 57.35 57.34 57.09 57.38 57.56 57.81 57.81 57.73 57.81 58.04 58.79 59.71 60.49 63.17 57.06 56.86 75.76 79.60 78.89 77.48 74.51 72.44 72.32 70.14 68.02 63.80 65.03 66.08 64.48 64.81 66.06 66.45 66.45 66.39
58.11 57.87 57.75 57.68 57.44 57.28 57.25 56.93 56.98 57.05 56.98 56.93 56.80 56.74 56.99 56.81 57.01 57.18 57.33 57.17 56.92 57.16 57.93 58.63 59.69 60.65 61.09 52.33 65.27 74.90 77.28 76.66 74.25 73.36 72.36 72.44 68.29 68.37 65.83 65.38 64.76 65.68 65.58 65.63 66.17 66.00 66.21
57.83 57.74 57.58 57.30 57.14 57.11 56.95 56.84 56.70 56.55 56.52 56.48 56.27 56.48 56.65 56.49 56.57 56.80 56.62 56.29 56.29 56.89 57.99 58.88 59.96 63.01 56.89 54.74 64.93 74.67 76.10 75.31 74.70 74.05 71.70 72.62 70.89 68.12 67.60 64.42 66.97 66.30 63.53 64.85 65.37 65.77 64.79
57.47 57.23 57.34 57.19 56.77 56.66 56.54 56.46 56.31 56.22 56.21 56.25 56.19 56.00 56.16 56.09 56.19 56.08 55.91 55.66 55.97 58.19 60.06 59.71 60.74 62.98 53.54 58.58 73.85 73.39 74.88 74.41 75.68 74.83 73.11 72.54 72.38 69.23 67.24 67.74 65.13 62.88 63.50 59.96 64.23 65.11 64.86
57.25 57.10 57.06 56.77 56.46 56.19 56.09 55.84 56.01 55.90 56.26 56.43 56.34 55.88 55.90 55.85 55.88 55.74 55.11 54.91 57.06 61.28 60.13 61.30 63.53 58.87 52.53 60.52 64.88 73.25 74.23 71.65 74.32 73.88 73.09 71.36 70.66 68.24 67.10 63.71 61.32 61.94 57.42 58.42 61.01 64.98 63.59
57.29 56.96 56.91 56.57 55.85 55.95 56.03 55.45 55.39 55.89 56.09 56.18 56.24 56.01 55.75 55.69 55.52 54.84 54.29 54.76 58.68 61.30 63.70 64.71 62.80 55.43 54.59 53.36 58.07 71.20 73.61 72.32 70.07 70.35 68.18 68.55 67.38 64.18 63.89 58.83 54.47 56.93 56.59 57.78 58.47 63.42 63.84
57.45 57.16 57.00 56.14 55.68 55.60 56.03 55.79 55.52 55.53 55.83 55.90 55.91 55.71 55.44 55.34 54.93 54.01 55.56 61.62 59.81 59.05 60.25 56.56 56.14 54.26 54.57 59.60 62.83 67.24 71.99 69.62 69.21 67.11 60.87 65.56 62.80 60.08 60.21 62.74 61.68 60.18 57.59 58.66 61.27 64.12 62.34
57.07 57.09 56.51 55.79 55.64 55.67 55.30 55.27 55.59 55.60 55.61 55.95 55.67 55.42 55.30 55.07 54.17 53.57 57.91 58.94 56.82 56.48 54.66 58.58 57.97 56.93 58.14 59.19 54.30 62.06 70.29 63.50 63.79 59.21 61.78 62.26 59.62 62.68 64.13 63.14 62.09 61.24 58.91 58.63 60.39 60.98 62.69
56.95 56.18 55.88 55.68 55.75 55.88 55.55 55.68 55.69 55.65 55.65 55.67 55.34 55.26 54.64 53.66 53.38 55.84 57.69 57.30 59.12 58.38 55.15 55.93 57.48 57.31 57.51 58.46 54.93 60.56 64.65 63.83 61.24 59.53 60.36 59.23 60.58 64.71 63.08 61.74 60.64 60.56 58.95 59.18 59.52 61.21 63.10
56.28 56.29 56.18 55.74 55.83 55.83 55.75 55.61 55.52 55.56 55.38 55.19 55.19 55.01 53.31 51.97 53.55 58.70 57.33 59.06 59.64 58.72 52.56 52.85 54.37 57.27 58.51 57.69 53.62 59.76 65.07 64.01 62.02 59.21 60.27 60.10 63.86 62.62 61.57 60.29 61.07 58.04 61.56 60.67 60.27 58.98 55.67
56.44 56.42 56.04 55.85 55.91 55.86 55.61 55.38 55.40 55.42 55.17 54.93 54.89 54.23 52.34 51.12 55.81 56.06 58.13 60.09 59.82 58.43 45.23 52.75 54.05 60.19 59.61 55.24 55.24 55.81 62.80 63.22 59.77 60.36 60.78 58.85 59.99 60.42 59.82 60.60 62.37 60.33 62.12 61.02 60.83 59.70 59.06
56.27 55.98 55.51 55.64 55.43 55.55 55.40 55.34 55.25 55.07 54.87 54.75 54.03 52.78 52.02 53.36 56.01 57.81 59.98 59.41 58.78 50.67 44.69 51.46 54.32 54.61 55.10 55.23 53.54 55.85 59.18 58.58 61.54 60.19 61.31 60.20 62.89 62.08 61.84 63.32 63.27 63.79 61.62 61.36 61.22 59.89 54.38
56.46 55.73 55.52 55.45 55.37 55.52 55.28 55.15 54.85 54.58 54.38 53.70 52.60 51.42 51.96 56.51 56.83 59.56 59.48 57.81 50.14 46.44 53.18 50.23 51.43 54.13 54.50 52.38 51.88 53.13 53.55 54.49 54.27 53.29 54.87 58.23 59.06 63.29 64.59 61.56 63.69 62.49 59.06 52.22 51.57 54.12 53.74
56.15 55.98 55.83 55.43 55.26 55.28 55.21 55.23 54.75 54.32 53.91 52.55 50.78 49.50 53.84 57.72 61.03 59.27 58.69 53.07 46.32 50.32 50.52 52.25 51.66 52.96 52.36 53.21 51.95 52.24 51.52 51.62 55.24 55.49 53.90 53.17 52.15 60.43 63.88 61.73 59.66 59.73 59.16 53.12 47.60 50.78 52.76
55.82 55.67 55.81 55.20 55.24 55.16 55.09 54.95 54.40 53.88 52.96 51.82 50.12 58.71 60.37 61.45 60.73 60.22 55.68 47.32 50.12 51.51 51.34 50.69 51.50 50.80 51.44 52.54 51.52 51.23 51.48 51.08 53.71 55.54 51.70 51.66 51.72 60.50 62.18 62.72 61.59 59.63 56.60 60.86 55.25 56.74 54.45
55.98 55.58 55.10 55.21 55.08 55.00 55.12 54.66 54.23 53.68 52.57 51.44 56.40 59.90 59.26 59.87 60.51 57.71 52.17 46.32 51.48 52.50 52.09 51.54 50.06 51.87 50.10 51.13 50.26 50.44 50.96 52.61 52.24 54.69 56.12 53.56 48.99 56.80 60.27 63.27 62.57 60.59 61.99 55.79 57.11 49.66 49.30
55.84 55.43 54.83 55.05 54.92 54.66 54.98 54.79 54.17 53.07 51.92 51.41 56.58 56.87 58.54 60.14 58.65 54.20 48.94 49.68 51.12 52.85 51.96 51.14 50.64 51.38 52.03 51.03 51.51 50.79 51.13 51.66 53.00 53.09 55.09 53.27 50.98 52.25 58.32 58.53 56.94 58.66 57.28 58.01 57.71 56.62 51.47
55.65 55.59 55.23 54.92 54.94 54.98 54.92 54.46 53.89 52.31 50.91 53.17 57.08 52.61 58.85 59.31 52.26 53.50 49.62 49.56 46.41 52.33 52.90 52.29 51.87 51.87 52.07 52.27 51.23 51.22 50.64 52.53 55.09 54.12 51.23 53.60 51.58 49.50 55.21 58.16 59.57 58.51 57.88 59.25 54.65 53.71 56.08
55.91 55.44 54.89 54.62 54.68 54.51 54.81 54.28 53.35 51.88 51.05 54.50 54.15 56.62 59.69 57.79 49.72 49.99 51.13 49.79 50.22 50.66 51.25 51.58 51.11 52.28 52.64 52.08 50.49 51.73 51.58 54.92 55.25 54.42 52.51 53.60 50.41 48.06 49.85 56.94 59.55 57.84 59.72 60.28 59.18 59.09 55.35
56.20 55.31 54.81 54.20 54.02 53.78 54.73 54.05 53.05 52.15 51.35 53.29 53.47 50.65 54.50 55.84 54.48 51.08 49.65 49.62 48.60 49.83 49.96 50.95 51.77 52.93 52.29 51.92 53.37 52.31 52.42 53.10 54.57 55.52 54.98 57.72 51.50 49.63 47.80 51.01 55.87 55.30 57.63 60.16 58.60 54.58 55.79
55.31 55.21 55.11 54.18 53.98 54.53 54.61 54.11 53.29 52.04 51.15 53.44 53.69 50.99 50.50 51.54 50.99 50.92 50.36 49.37 48.20 47.93 50.35 51.38 50.99 51.49 52.11 50.98 51.39 51.20 52.06 52.94 54.53 54.88 55.54 54.36 49.59 51.25 51.62 51.88 53.16 54.54 56.63 58.02 57.24 57.10 54.35
54.67 55.69 55.55 54.26 53.73 54.08 54.60 54.36 53.68 52.15 50.16 54.77 50.58 49.87 53.60 52.63 49.38 49.32 45.53 49.20 47.97 47.86 48.99 49.17 49.72 49.80 51.39 51.53 51.34 50.72 51.81 53.27 53.39 54.37 55.15 55.01 51.06 52.04 50.37 51.48 51.60 50.31 52.87 54.47 56.19 57.58 57.12
54.52 55.47 55.47 54.11 53.59 53.73 53.95 54.41 53.88 52.26 51.00 52.56 53.41 54.13 50.48 43.93 48.20 48.50 49.95 48.93 47.90 48.46 48.95 49.62 49.80 50.04 49.92 49.16 50.43 51.52 51.99 51.67 52.69 52.49 52.20 53.20 52.19 51.46 48.90 51.86 51.13 48.16 51.26 53.12 54.43 57.63 58.20
54.12 55.29 55.25 54.02 53.29 53.44 53.69 54.23 54.15 53.24 51.13 53.20 51.76 51.41 48.44 46.74 47.33 47.90 47.00 47.72 47.37 47.78 48.10 48.69 49.79 49.51 49.99 52.40 52.66 52.20 51.77 51.61 51.85 52.19 52.80 51.92 53.16 52.78 49.52 51.96 45.61 52.31 55.53 54.82 54.79 57.26 59.45
53.47 54.85 55.18 54.12 53.19 53.17 53.53 53.43 54.13 53.80 52.18 52.45 52.87 50.96 49.13 45.76 47.31 45.81 46.11 47.01 47.99 48.33 47.71 47.81 49.01 50.20 51.83 50.95 49.33 48.09 48.84 49.17 51.04 52.08 52.14 52.52 52.49 50.44 48.36 48.55 51.40 52.97 54.98 54.67 53.15 53.48 57.07
52.93 54.10 54.77 54.08 53.14 52.81 53.18 53.25 53.46 53.64 52.18 53.16 52.02 52.51 50.42 46.27 46.07 46.50 45.70 46.62 46.63 47.24 47.48 48.01 50.50 52.36 51.34 50.20 48.16 44.44 43.27 47.12 47.47 49.52 52.92 52.41 52.22 50.63 50.39 46.56 45.33 53.29 56.78 59.31 59.61 52.25 60.20
53.21 53.58 54.60 53.64 53.14 52.75 52.82 53.02 53.22 53.47 52.80 52.48 52.24 52.47 50.03 46.12 49.63 47.18 46.33 46.54 48.53 46.97 46.48 48.23 48.22 48.38 50.38 46.85 44.51 44.36 44.54 48.12 44.77 46.55 47.71 48.37 49.21 47.39 48.51 48.02 50.91 55.67 57.27 60.78 52.97 54.86 60.80
52.82 53.02 54.21 53.41 52.82 52.62 52.66 52.73 53.04 53.15 53.15 52.57 52.18 53.56 50.18 47.94 49.55 48.11 48.09 46.56 47.54 47.69 45.38 47.88 46.27 46.67 47.07 43.85 44.17 44.80 44.36 47.39 46.62 49.45 49.79 48.78 47.56 47.40 48.72 47.64 45.92 57.69 57.64 56.06 60.22 62.22 62.30
52.77 52.92 53.86 53.35 52.88 52.63 52.64 52.71 52.73 52.89 52.65 51.42 52.25 53.60 53.13 48.86 49.21 50.32 50.97 51.79 50.19 49.73 47.99 48.70 47.02 46.15 50.04 45.72 46.81 47.28 44.94 47.62 47.06 44.03 52.60 48.62 50.94 49.42 50.19 50.53 59.17 60.38 61.36 61.64 61.60 62.44 63.12
MSLP
1021.60 1021.36 1021.05 1020.79 1020.51 1020.23 1019.90 1019.45 1019.00 1018.56 1018.13 1017.62 1017.09 1016.54 1016.05 1015.55 1015.11 1014.77 1014.33 1014.05 1013.74 1013.33 1012.97 1012.72 1012.37 1012.02 1011.19 1008.97 1006.40 1007.23 1007.83 1008.13 1008.18 1007.55 1007.21 1007.27 1006.98 1006.63 1005.96 1005.95 1005.95 1005.70 1005.64 1006.03 1006.38 1006.63 1007.00
1021.73 1021.44 1021.11 1020.81 1020.47 1020.16 1019.80 1019.34 1018.94 1018.53 1018.10 1017.63 1017.10 1016.49 1015.93 1015.35 1014.84 1014.55 1014.15 1013.62 1013.43 1013.07 1012.59 1012.46 1012.12 1011.93 1010.19 1007.38 1006.60 1006.86 1007.21 1007.87 1007.05 1006.95 1006.75 1006.88 1006.37 1006.50 1006.17 1005.90 1005.84 1005.79 1005.90 1006.18 1006.58 1006.77 1007.34
1021.81 1021.49 1021.17 1020.86 1020.50 1020.14 1019.78 1019.33 1018.84 1018.38 1017.91 1017.38 1016.85 1016.33 1015.77 1015.20 1014.55 1014.11 1013.87 1013.34 1012.90 1012.54 1012.16 1011.97 1011.84 1011.21 1008.89 1006.52 1006.67 1006.56 1006.95 1006.96 1006.80 1006.51 1006.24 1006.54 1006.99 1006.60 1005.88 1005.86 1006.39 1005.89 1006.14 1006.54 1006.82 1007.16 1007.49
1021.88 1021.58 1021.22 1020.89 1020.57 1020.22 1019.82 1019.33 1018.85 1018.39 1017.86 1017.38 1016.80 1016.15 1015.50 1014.84 1014.33 1013.80 1013.47 1013.04 1012.38 1011.87 1011.52 1011.50 1011.55 1010.36 1006.97 1006.84 1006.42 1006.55 1006.62 1006.64 1006.93 1006.60 1006.51 1006.70 1006.30 1006.08 1006.03 1006.24 1006.48 1006.09 1006.16 1006.25 1007.15 1007.46 1007.91
1021.88 1021.53 1021.12 1020.71 1020.33 1020.02 1019.69 1019.26 1018.78 1018.31 1017.71 1017.22 1016.66 1016.05 1015.36 1014.72 1014.11 1013.57 1013.10 1012.61 1011.92 1011.24 1011.15 1011.26 1010.67 1009.06 1006.37 1007.36 1006.48 1006.16 1006.15 1006.03 1006.57 1006.72 1006.60 1006.70 1006.26 1005.53 1006.15 1005.54 1005.48 1006.28 1005.69 1006.18 1007.04 1007.54 1007.95
1021.89 1021.54 1021.14 1020.66 1020.27 1019.87 1019.43 1019.01 1018.50 1018.11 1017.52 1017.05 1016.42 1015.77 1015.05 1014.40 1013.87 1013.34 1012.68 1012.12 1011.59 1011.37 1010.97 1010.47 1009.51 1008.38 1006.41 1005.55 1005.66 1005.82 1005.95 1005.82 1006.02 1006.17 1006.24 1006.11 1005.50 1005.48 1005.41 1005.86 1005.27 1005.95 1006.37 1007.03 1006.81 1007.16 1007.61
1021.93 1021.58 1021.18 1020.78 1020.30 1019.77 1019.23 1018.67 1018.21 1017.79 1017.28 1016.60 1015.98 1015.33 1014.74 1014.14 1013.57 1013.15 1012.36 1010.91 1010.89 1009.92 1008.83 1006.56 1006.19 1005.84 1005.47 1005.56 1005.91 1005.68 1005.76 1005.83 1005.76 1005.75 1005.14 1005.16 1004.58 1004.06 1004.85 1004.76 1005.36 1006.03 1006.49 1005.99 1006.71 1007.52 1007.80
1021.94 1021.55 1021.16 1020.79 1020.34 1019.85 1019.30 1018.71 1018.11 1017.52 1016.91 1016.24 1015.58 1014.99 1014.43 1013.77 1013.28 1012.74 1011.90 1009.24 1008.82 1008.81 1006.81 1006.00 1006.11 1006.04 1005.78 1005.43 1004.90 1005.08 1005.47 1005.19 1005.24 1004.55 1004.53 1004.68 1003.79 1003.64 1004.38 1005.13 1004.99 1005.18 1005.79 1006.33 1007.49 1008.18 1008.18
1021.86 1021.52 1021.11 1020.69 1020.22 1019.77 1019.30 1018.69 1018.01 1017.34 1016.72 1016.08 1015.36 1014.76 1014.20 1013.48 1012.81 1012.02 1010.08 1008.72 1008.84 1008.43 1006.43 1005.30 1005.18 1004.91 1004.84 1005.26 1003.95 1004.35 1004.74 1004.10 1003.99 1003.75 1003.74 1003.14 1002.94 1003.39 1004.14 1004.33 1004.43 1004.46 1005.13 1005.70 1006.54 1007.65 1007.55
1021.80 1021.40 1020.97 1020.52 1020.01 1019.51 1019.02 1018.44 1017.75 1017.03 1016.36 1015.72 1015.09 1014.47 1013.95 1013.28 1012.71 1010.41 1008.91 1008.80 1008.69 1008.42 1005.62 1004.31 1004.42 1003.94 1004.53 1004.09 1003.77 1003.70 1004.40 1003.52 1003.20 1002.91 1003.17 1002.92 1003.33 1003.61 1003.65 1003.66 1004.38 1004.10 1005.43 1005.92 1006.51 1006.95 1006.38
1021.72 1021.33 1020.91 1020.42 1019.88 1019.28 1018.69 1018.06 1017.36 1016.60 1015.84 1015.16 1014.58 1014.05 1013.73 1013.67 1011.74 1009.51 1008.78 1008.64 1008.43 1007.84 1003.99 1003.36 1003.68 1004.20 1003.44 1003.18 1002.52 1003.61 1004.14 1003.54 1002.74 1002.58 1002.92 1002.55 1003.08 1003.39 1003.18 1003.17 1003.96 1004.31 1005.39 1005.66 1006.02 1006.14 1005.74
1021.67 1021.26 1020.83 1020.32 1019.76 1019.16 1018.51 1017.83 1017.05 1016.23 1015.40 1014.59 1013.93 1013.49 1013.18 1012.47 1011.49 1009.24 1009.05 1008.67 1008.09 1005.98 1002.43 1002.49 1002.90 1003.09 1003.11 1002.64 1002.26 1003.10 1003.52 1004.05 1002.71 1002.52 1002.79 1002.07 1003.02 1002.91 1002.90 1003.83 1004.35 1005.19 1005.44 1005.61 1005.74 1005.51 1004.53
1021.61 1021.22 1020.75 1020.23 1019.64 1019.02 1018.32 1017.54 1016.73 1015.86 1014.93 1013.98 1013.19 1012.65 1012.53 1010.84 1008.86 1009.30 1008.95 1007.74 1005.73 1003.31 1002.36 1001.97 1001.64 1002.03 1001.66 1001.70 1001.76 1002.17 1002.53 1002.61 1002.10 1002.03 1001.78 1002.13 1002.62 1003.40 1003.78 1004.13 1004.86 1004.83 1004.25 1003.66 1003.71 1004.00 1003.02
1021.54 1021.13 1020.67 1020.17 1019.55 1018.88 1018.17 1017.32 1016.42 1015.51 1014.50 1013.39 1012.50 1011.99 1011.41 1010.11 1009.53 1009.31 1008.11 1006.33 1003.80 1002.18 1001.56 1001.91 1001.48 1001.36 1000.94 1000.80 1001.05 1001.35 1001.51 1001.46 1001.68 1001.37 1000.89 1001.18 1001.82 1002.87 1003.20 1003.11 1003.26 1004.00 1003.51 1003.29 1002.90 1002.67 1002.02
1021.45 1021.04 1020.57 1020.07 1019.48 1018.81 1018.03 1017.17 1016.19 1015.13 1014.13 1013.07 1011.75 1010.35 1009.50 1009.06 1009.22 1009.09 1007.06 1004.60 1002.30 1002.31 1002.42 1001.77 1001.52 1000.73 1000.52 1000.61 1000.58 1000.88 1000.71 1000.50 1000.60 1000.84 1000.67 1000.52 1000.97 1001.87 1002.69 1003.10 1003.35 1003.49 1003.73 1003.57 1002.85 1002.17 1001.70
1021.33 1020.96 1020.52 1020.00 1019.37 1018.68 1017.93 1017.05 1016.08 1014.90 1013.70 1012.87 1011.02 1009.15 1008.57 1009.06 1008.92 1008.03 1006.15 1003.79 1003.31 1003.42 1003.05 1002.38 1000.81 1000.37 999.87 1000.12 1000.44 1000.41 1000.19 1000.19 1000.07 1000.81 1000.86 1000.66 1000.91 1001.31 1002.47 1003.57 1003.89 1003.43 1003.18 1002.86 1002.35 1001.50 1000.96
1021.23 1020.90 1020.51 1020.01 1019.42 1018.66 1017.86 1017.05 1016.05 1014.83 1013.34 1012.29 1010.50 1007.97 1008.57 1008.73 1008.54 1006.80 1004.73 1003.64 1003.90 1003.93 1003.89 1002.71 1001.47 1000.66 999.83 999.62 999.93 999.87 999.86 1001.23 1000.75 1000.92 1001.16 1000.99 1001.12 1000.81 1001.95 1002.44 1001.83 1002.98 1002.81 1002.80 1002.10 1001.45 1000.65
1021.11 1020.75 1020.41 1019.97 1019.42 1018.72 1017.92 1017.04 1016.21 1015.10 1013.46 1011.43 1009.85 1007.38 1008.25 1008.39 1006.95 1005.84 1004.49 1004.53 1005.04 1003.98 1004.15 1003.39 1002.82 1001.73 1000.68 1000.20 999.98 999.82 999.90 1000.60 1002.42 1001.41 1001.35 1001.19 1000.62 1000.31 1000.91 1001.07 1001.15 1001.16 1001.18 1001.28 1000.80 1000.76 1000.75
1021.04 1020.68 1020.34 1019.92 1019.39 1018.78 1018.06 1017.23 1016.34 1015.52 1014.82 1013.05 1009.89 1008.14 1007.95 1007.69 1005.62 1005.03 1005.21 1004.88 1004.98 1004.52 1004.36 1003.78 1003.02 1002.90 1002.39 1001.28 1000.96 1000.78 1001.13 1002.69 1002.88 1002.34 1001.60 1001.19 1000.74 999.85 999.74 1000.84 1001.51 1000.79 1001.14 1000.85 1000.38 1000.36 1000.18
1020.94 1020.62 1020.31 1019.93 1019.44 1018.89 1018.23 1017.36 1016.41 1015.59 1014.91 1014.05 1010.71 1007.95 1007.49 1007.25 1006.88 1005.61 1004.96 1004.77 1004.96 1005.57 1005.13 1004.84 1003.99 1003.64 1002.81 1002.15 1002.02 1001.92 1002.16 1003.19 1003.47 1003.11 1003.27 1002.28 1000.57 999.59 998.68 998.89 999.35 1000.18 1000.17 1000.48 1000.05 999.55 999.38
1020.90 1020.50 1020.20 1019.90 1019.46 1018.91 1018.31 1017.56 1016.55 1015.50 1014.69 1014.16 1011.18 1009.60 1009.79 1007.07 1006.86 1006.29 1006.10 1005.65 1005.14 1005.31 1005.56 1005.35 1004.59 1004.00 1003.16 1002.54 1002.58 1002.57 1003.01 1003.38 1003.81 1003.83 1003.32 1002.19 1000.50 999.74 999.14 998.98 998.78 998.79 999.26 999.69 999.65 999.26 998.87
1020.88 1020.44 1020.07 1019.85 1019.46 1018.99 1018.46 1017.82 1016.95 1015.68 1014.32 1012.95 1011.93 1011.15 1010.34 1009.10 1008.40 1007.49 1006.69 1006.03 1005.83 1006.15 1006.15 1005.48 1005.18 1005.05 1004.70 1003.79 1004.10 1003.57 1003.65 1003.54 1003.16 1003.48 1002.74 1002.07 1000.70 1000.21 999.66 999.13 998.85 998.56 998.56 998.47 998.39 998.70 998.69
1020.86 1020.34 1020.00 1019.80 1019.46 1019.04 1018.59 1018.07 1017.42 1016.44 1014.68 1013.34 1013.64 1013.04 1011.86 1010.08 1008.65 1007.97 1006.83 1006.85 1006.82 1007.40 1007.45 1007.14 1006.53 1006.07 1005.73 1006.64 1006.58 1006.01 1005.52 1005.00 1004.54 1004.04 1002.92 1002.10 1000.86 1000.60 999.27 998.76 998.64 997.99 997.98 997.84 997.69 997.77 998.12
1020.80 1020.26 1019.95 1019.74 1019.47 1019.11 1018.72 1018.30 1017.84 1017.33 1016.75 1015.22 1015.10 1014.17 1011.95 1009.52 1009.63 1008.80 1008.90 1008.84 1008.40 1008.40 1007.91 1008.09 1007.88 1007.43 1008.30 1008.08 1007.15 1006.55 1005.81 1005.12 1004.77 1004.24 1003.88 1002.59 1001.91 1001.10 999.63 998.97 998.03 997.39 996.99 997.07 997.15 997.08 997.37
1020.72 1020.21 1019.79 1019.60 1019.40 1019.14 1018.82 1018.48 1018.14 1017.81 1017.39 1016.00 1015.73 1014.70 1013.04 1010.93 1010.78 1010.35 1010.16 1009.68 1009.75 1009.67 1009.21 1009.03 1009.13 1009.40 1009.04 1007.88 1006.43 1005.41 1004.63 1004.35 1003.70 1003.82 1003.49 1003.41 1002.32 1001.25 1000.24 999.15 998.18 997.17 997.07 997.21 996.91 996.75 996.95
1020.58 1020.13 1019.72 1019.50 1019.35 1019.13 1018.88 1018.60 1018.34 1018.10 1017.74 1016.64 1016.26 1016.05 1014.47 1012.81 1011.20 1011.83 1011.10 1010.95 1010.01 1009.63 1009.74 1009.75 1010.27 1010.04 1009.17 1007.71 1006.35 1004.88 1003.16 1002.86 1002.23 1003.05 1003.29 1003.06 1003.19 1002.21 1000.57 999.46 997.89 997.37 996.97 997.75 997.66 997.05 997.46
1020.39 1019.98 1019.54 1019.35 1019.20 1019.03 1018.83 1018.61 1018.41 1018.20 1018.05 1017.23 1016.61 1016.63 1015.17 1013.52 1012.81 1012.82 1011.81 1011.54 1011.50 1010.82 1009.98 1010.18 1010.24 1010.03 1009.75 1007.68 1006.24 1004.77 1003.51 1003.06 1002.24 1001.97 1002.88 1002.78 1002.57 1001.71 1000.99 999.72 998.44 997.95 998.11 998.22 998.24 998.58 998.99
1020.22 1019.81 1019.38 1019.24 1019.06 1018.91 1018.73 1018.53 1018.41 1018.31 1018.14 1017.49 1016.87 1017.03 1016.22 1014.46 1013.40 1013.70 1013.28 1012.74 1012.43 1011.85 1010.51 1010.97 1011.04 1010.25 1009.52 1008.20 1006.61 1005.13 1004.39 1003.34 1003.23 1002.14 1001.51 1001.88 1001.63 1000.77 1000.84 999.81 998.82 999.14 999.15 999.00 999.69 1000.28 1000.59
1020.00 1019.59 1019.24 1019.11 1018.92 1018.75 1018.59 1018.45 1018.27 1018.29 1018.29 1018.01 1016.66 1017.31 1017.27 1016.06 1014.07 1014.55 1014.07 1013.78 1013.48 1013.03 1012.37 1011.77 1010.93 1010.39 1009.31 1008.66 1007.42 1006.11 1005.57 1004.62 1003.83 1002.27 1002.63 1001.73 1000.65 1000.21 999.83 999.24 999.88 999.99 1000.27 1001.16 1001.08 1001.42 1001.61
Wind_Speed
12 13 13 12 12 13 13 14 15 15 16 17 18 18 19 19 19 19 19 17 16 16 15 14 12 10 7 9 1 10 17 21 20 16 17 12 10 5 4 2 5 4 1 6 7 9 7
13 13 13 13 14 14 15 16 16 16 16 17 17 18 19 20 20 19 19 19 18 17 16 12 10 9 7 11 4 12 19 22 16 16 14 9 1 2 6 2 4 1 5 11 10 9 8
13 13 13 14 15 15 16 16 17 18 18 18 19 19 19 20 21 21 19 20 20 17 15 11 8 6 8 2 2 10 19 19 15 12 11 8 9 5 1 1 2 9 10 9 8 8 7
13 13 13 14 14 15 16 17 17 18 18 19 20 21 21 22 21 22 20 20 20 15 10 7 7 7 5 3 2 13 17 16 13 9 1 5 6 4 3 6 7 5 8 8 9 10 5
14 14 15 16 17 16 17 17 17 18 18 18 19 20 21 21 21 20 20 19 17 5 5 9 8 7 5 4 9 13 14 15 16 11 4 3 6 3 7 12 11 10 2 5 10 11 8
13 15 15 17 18 17 17 18 18 18 18 18 19 19 20 20 19 19 20 17 1 5 7 5 3 7 7 7 9 13 14 13 15 13 9 10 8 4 6 5 4 5 3 4 9 11 12
13 14 15 16 17 18 18 19 19 20 19 20 20 20 20 20 19 17 15 6 7 8 9 5 3 2 7 7 8 14 16 15 12 13 13 14 10 13 17 6 4 8 7 6 9 9 6
14 15 15 16 16 17 19 20 20 21 21 21 21 21 20 20 18 17 7 6 6 7 5 12 8 4 3 1 10 14 19 15 16 16 16 8 14 6 8 10 10 9 7 4 1 4 11
15 15 16 16 17 17 17 18 19 20 20 21 21 20 19 20 21 6 5 2 4 3 8 8 7 10 9 10 12 20 23 18 18 19 16 16 3 12 10 9 10 7 4 0 10 9 13
15 15 15 16 17 18 18 19 20 21 21 21 21 20 20 22 7 1 4 3 6 5 7 12 10 8 10 8 10 18 23 16 12 18 18 17 11 10 9 8 7 8 1 4 5 8 8
15 15 16 16 17 19 19 20 21 22 22 22 21 19 17 8 8 6 6 4 2 6 8 9 8 6 11 14 17 14 21 15 17 16 11 14 11 15 14 13 6 5 2 5 6 11 8
16 17 17 18 19 19 20 21 21 22 23 24 22 19 14 6 5 5 4 2 6 8 4 8 8 11 15 15 8 15 20 13 11 19 16 16 3 8 4 3 5 7 6 6 6 9 9
15 17 18 18 19 19 20 21 22 23 24 25 23 19 6 2 3 1 5 6 8 9 3 8 8 11 17 15 12 19 23 22 16 17 18 16 14 5 9 10 8 9 11 6 5 5 3
14 16 16 17 19 19 21 22 23 24 26 26 25 14 8 4 2 5 7 8 8 3 2 4 3 8 15 17 14 14 21 22 24 20 15 15 15 14 13 13 8 11 10 7 8 6 9
12 15 16 17 18 19 21 22 24 26 27 27 24 5 4 2 4 5 8 9 3 2 1 3 6 11 12 14 7 13 16 22 23 20 19 14 18 12 8 5 9 9 9 4 12 13 9
12 14 17 17 18 20 21 23 25 27 28 25 5 3 4 3 4 7 9 8 2 2 4 5 9 9 15 18 15 14 16 10 21 23 21 13 10 16 11 7 5 12 4 8 6 5 6
12 13 16 17 18 20 21 23 25 27 30 22 5 5 5 4 5 7 9 4 3 2 4 4 4 7 8 15 18 18 14 5 8 15 18 19 13 9 12 14 14 8 11 10 10 8 7
11 12 14 15 17 19 21 23 24 25 31 8 5 5 4 4 7 3 8 3 1 4 1 3 4 5 8 9 13 14 15 8 4 9 20 19 12 14 16 15 13 21 15 14 10 8 5
13 12 14 15 17 19 20 22 23 23 21 7 5 3 3 5 7 9 4 5 2 5 1 2 3 3 2 6 6 7 6 5 4 11 11 18 12 13 17 13 7 13 12 13 13 4 9
14 12 13 15 17 18 19 21 23 23 21 6 5 4 5 4 3 8 6 7 8 3 1 2 2 4 6 7 2 8 10 6 3 2 5 4 19 18 14 15 15 18 16 17 15 10 8
17 14 12 14 16 17 17 19 22 24 21 6 2 4 4 2 6 6 5 2 9 7 2 2 4 4 5 7 6 7 4 9 6 4 5 10 18 18 17 16 13 9 18 17 16 17 15
17 16 12 14 15 16 17 18 21 25 27 2 6 5 1 2 3 6 6 9 8 5 4 7 6 2 3 3 6 8 4 4 3 4 6 7 9 4 14 17 17 18 19 20 18 19 16
17 18 10 12 13 15 16 16 17 22 19 4 3 1 5 4 4 6 3 2 4 2 3 2 2 4 5 6 5 5 5 3 1 2 4 6 6 9 13 13 14 21 19 20 20 16 16
18 14 9 10 12 13 14 14 14 16 15 5 4 5 5 2 5 3 1 4 4 1 3 1 2 6 6 7 8 7 7 7 7 8 8 5 8 5 10 7 19 11 15 19 21 16 19
16 16 13 7 9 11 12 13 12 11 14 4 3 4 4 5 4 6 5 4 3 4 5 3 2 4 6 7 6 8 9 7 11 13 13 11 8 7 10 13 13 10 9 12 13 19 19
16 17 14 6 8 9 10 11 11 9 11 5 4 4 4 6 3 4 5 4 7 7 6 5 2 5 5 4 6 9 10 11 11 8 8 12 11 9 10 14 17 11 9 1 9 13 3
16 17 15 4 6 7 9 9 10 9 7 7 4 6 5 5 3 4 4 4 1 3 5 2 4 6 5 6 9 11 13 6 11 15 8 12 11 16 14 14 10 10 4 4 15 3 5
16 16 12 4 6 6 7 8 8 8 5 7 4 5 6 4 3 4 4 5 4 6 6 6 6 7 5 9 8 6 8 10 14 13 15 13 10 13 14 18 22 3 5 12 5 6 5
14 15 11 5 7 7 7 7 7 6 3 6 0 4 5 5 6 5 9 10 9 10 8 5 6 3 2 6 4 4 5 4 11 14 13 13 16 11 12 10 6 3 6 7 5 6 6
Wind_Direction
23 13 10 9 5 0 356 352 347 345 342 339 335 332 329 328 327 327 325 323 321 317 314 309 307 311 269 217 95 115 144 153 173 175 186 179 200 231 300 226 210 222 112 126 130 141 142
18 11 9 5 0 356 354 351 347 344 340 336 332 330 328 326 324 326 324 319 317 311 303 298 296 298 244 227 86 140 157 167 177 184 195 198 337 333 286 320 230 194 161 128 144 144 140
14 10 7 2 356 352 348 346 343 340 338 335 333 331 327 326 324 324 323 317 313 306 293 280 269 261 244 39 359 161 165 177 178 193 190 189 268 283 50 122 49 147 142 137 148 151 147
12 5 358 356 352 349 346 343 340 337 335 330 331 329 327 326 324 321 319 315 310 301 277 236 217 233 258 77 141 165 173 173 184 202 275 286 216 251 268 121 168 194 177 168 155 168 151
3 359 354 353 351 349 346 343 340 336 332 327 327 326 326 324 321 318 316 314 304 316 140 165 204 245 171 133 187 173 186 176 175 195 209 195 240 288 173 219 179 199 249 250 170 191 155
358 356 353 351 349 346 345 342 340 335 331 325 325 324 324 321 319 318 315 301 189 190 175 209 279 223 174 189 152 174 191 174 174 184 197 213 222 161 226 212 221 122 222 213 255 194 216
355 351 351 350 347 345 342 340 337 334 330 327 326 326 324 319 318 319 309 202 203 178 207 266 141 37 139 118 162 181 182 180 191 200 207 196 214 206 202 204 180 180 266 315 213 73 263
355 351 352 350 346 343 340 336 331 329 328 327 325 325 324 319 318 314 256 260 28 358 265 218 231 251 199 266 165 182 179 184 192 201 209 180 231 155 122 203 210 231 247 118 274 137 234
358 355 351 348 345 341 338 333 329 326 326 325 324 324 324 322 319 263 271 21 356 291 253 156 190 218 191 202 200 170 192 205 195 209 196 225 226 148 196 191 234 221 272 109 259 191 228
354 351 348 346 343 340 337 332 329 327 326 324 323 323 328 324 290 28 206 116 299 244 257 144 187 181 181 214 207 175 199 195 209 210 209 232 127 182 199 228 221 256 60 260 190 213 243
350 350 348 345 342 339 336 333 330 327 326 325 324 323 323 314 327 229 69 318 228 225 232 131 141 108 158 197 125 183 198 213 216 215 190 205 205 220 240 250 216 38 176 230 216 238 286
347 348 347 345 343 338 335 332 330 327 326 325 324 322 318 193 218 289 294 268 221 227 206 140 134 174 172 198 184 140 184 230 248 223 210 245 155 246 292 84 214 132 167 188 212 263 239
348 348 346 344 340 338 336 333 331 329 327 326 324 321 242 256 73 318 277 210 214 251 137 151 166 179 193 180 172 169 182 197 195 204 209 211 209 143 178 127 159 207 218 249 206 204 241
350 347 344 344 341 339 337 335 333 331 330 328 324 316 180 279 288 302 221 216 242 46 209 120 177 178 199 180 193 192 189 200 211 211 217 212 185 195 184 230 202 217 299 298 311 287 326
352 350 344 344 342 340 339 337 335 333 333 332 312 179 198 117 224 237 231 218 315 166 21 214 170 187 190 189 220 195 208 210 204 215 225 208 228 154 190 181 242 145 228 315 283 240 252
347 353 347 345 343 342 342 340 338 335 334 336 302 231 87 86 164 234 232 252 184 323 321 221 228 219 190 191 201 204 187 214 208 204 234 227 244 185 157 183 200 264 50 218 211 282 295
344 355 349 346 344 344 343 343 341 339 336 333 241 220 87 202 248 219 229 211 201 143 327 263 222 198 235 181 204 198 189 130 211 193 221 234 211 181 175 215 223 174 219 233 288 284 310
342 350 352 348 345 345 344 343 344 343 339 306 292 221 84 219 218 229 231 211 8 194 235 237 269 297 224 201 204 206 217 191 186 213 204 220 225 225 202 234 242 251 232 230 242 180 238
346 350 355 350 348 349 346 344 343 346 355 315 322 332 123 249 236 208 148 189 254 222 186 264 212 297 228 192 191 210 173 105 188 202 215 205 221 238 210 166 199 227 219 251 248 308 277
340 347 355 351 351 352 349 346 343 345 348 287 283 224 158 207 316 288 207 202 187 150 164 288 284 240 201 183 251 170 159 147 131 222 3 290 230 226 235 226 199 206 215 213 235 239 240
344 344 352 354 351 353 353 350 346 345 346 282 344 68 6 181 187 248 250 7 212 193 198 233 197 261 246 195 173 158 168 151 162 130 203 232 236 242 244 258 245 221 220 206 228 251 269
341 339 347 353 351 354 356 355 352 347 334 290 329 325 210 296 251 238 168 211 234 155 271 180 256 186 243 262 355 149 176 239 111 159 190 200 242 253 247 243 245 248 235 246 225 240 259
339 338 336 349 351 354 358 359 1 357 337 19 41 213 285 126 235 243 220 227 204 222 133 4 316 250 174 73 1 359 335 317 325 285 183 240 234 216 237 217 238 233 237 245 240 226 240
342 339 340 346 348 352 357 0 7 7 356 338 23 288 277 209 256 283 310 272 236 151 292 108 301 265 54 299 264 240 249 250 250 244 246 238 221 230 256 200 235 246 234 220 242 232 231
339 340 338 335 343 346 352 359 8 10 357 353 5 317 319 281 313 221 231 242 222 188 217 262 88 10 305 273 251 235 213 229 224 227 219 227 262 247 239 234 254 229 221 228 237 236 236
338 336 336 324 333 341 345 353 360 12 360 307 30 322 301 303 104 352 254 262 255 232 196 206 192 324 284 262 227 230 222 218 209 157 242 210 230 259 227 251 250 250 223 113 267 246 7
337 334 332 310 322 332 336 342 350 3 3 318 44 358 281 285 92 264 262 305 299 253 272 91 197 209 248 221 231 233 234 237 234 206 175 193 213 223 225 240 244 247 85 234 218 123 34
336 330 332 313 315 311 319 329 338 351 6 312 55 5 328 308 300 246 252 242 210 250 250 104 205 194 199 229 236 204 252 202 247 251 211 201 207 211 232 238 232 56 191 242 53 91 39
328 326 327 290 304 301 302 314 323 330 1 300 285 17 332 268 346 320 288 287 276 292 297 206 353 325 294 244 214 278 226 254 238 228 203 242 231 254 217 225 115 69 90 97 60 94 70